Home > Weather > Macau > Past weeks

Flag for Macau Past Weather in Macau, Macau — Yesterday and Last 2 Weeks

Now
81 °F

Passing clouds.


Feels Like: 88 °F
Forecast: 80 / 86 °F
Wind: 25 mph from South

Location: Taipa

Current Time: May 27, 2016 at 8:22:12 PM

Latest Report: May 27, 2016 at 8:00 PM


Visibility: N/A

Pressure: 29.65 "Hg

Humidity: 94%

Dew Point: 79 °F

Location of MacauLocation

Past Weather in Macau — Graph

°F

Macau Temperature Yesterday

Maximum temperature yesterday: 86 °F (at 2:00 PM)
Minimum temperature yesterday: 81 °F (at 12:00 AM)
Average temperature yesterday: 82 °F

High & Low Weather Summary for the Past Weeks

 TemperatureHumidityPressure
High86 °F (May 22, 3:30 PM)100% (May 20, 5:30 PM)29.98 "Hg (May 20, 5:30 PM)
Low70 °F (May 16, 4:30 AM)48% (May 16, 5:00 PM)29.62 "Hg (May 21, 2:30 AM)
Average79 °F85%29.79 "Hg
* Reported May 12 7:00 PM — May 27 7:00 PM, Macau, Weather by CustomWeather, © 2016

Note: Actual official high and low records may vary slightly from our data, if they occured in-between our weather recording intervals... More about our weather records

Advertising

Macau Weather History for the Previous 24 Hours

Scroll right to see more
 ConditionsComfort  
Time TempWeatherWind HumidityBarometerVisibility
7:00 PM
Fri, May 27
81 °FSprinkles. Broken clouds.25 mph94%29.62 "Hg5 mi
6:30 PM81 °FRain showers. Broken clouds.18 mph94%29.62 "Hg2 mi
6:00 PM81 °FSprinkles. Broken clouds.25 mph89%29.62 "Hg5 mi
5:30 PM82 °FScattered clouds.24 mph84%29.62 "HgN/A
5:00 PM81 °FScattered clouds.24 mph89%29.62 "HgN/A
4:30 PM81 °FSprinkles. Broken clouds.18 mph94%29.62 "Hg4 mi
4:00 PM81 °FSprinkles. Broken clouds.25 mph89%29.62 "Hg5 mi
3:30 PM82 °FSprinkles. Broken clouds.25 mph84%29.65 "Hg1 mi
3:00 PM82 °FBroken clouds.22 mph84%29.62 "HgN/A
2:30 PM81 °FBroken clouds.14 mph94%29.65 "HgN/A
2:00 PM79 °FRain showers. Broken clouds.17 mph94%29.65 "Hg1 mi
1:30 PM79 °FSprinkles. Broken clouds.17 mph94%29.68 "Hg4 mi
1:00 PM81 °FSprinkles. Broken clouds.17 mph89%29.68 "Hg2 mi
12:30 PM82 °FSprinkles. Broken clouds.17 mph89%29.68 "Hg6 mi
12:00 PM82 °FSprinkles. Broken clouds.14 mph89%29.68 "Hg6 mi
11:30 AM82 °FScattered clouds.13 mph89%29.68 "HgN/A
11:00 AM81 °FScattered clouds.14 mph94%29.71 "HgN/A
10:30 AM81 °FSprinkles. Broken clouds.15 mph89%29.71 "Hg4 mi
10:00 AM79 °FSprinkles. Broken clouds.13 mph100%29.71 "Hg4 mi
9:30 AM81 °FSprinkles. Scattered clouds.17 mph94%29.71 "Hg3 mi
9:00 AM82 °FScattered clouds.15 mph89%29.71 "HgN/A
8:30 AM82 °FScattered clouds.14 mph89%29.71 "HgN/A
8:00 AM81 °FScattered clouds.14 mph89%29.68 "HgN/A
7:30 AM81 °FScattered clouds.15 mph89%29.68 "HgN/A
7:00 AM81 °FScattered clouds.13 mph89%29.68 "HgN/A
6:30 AM81 °FSprinkles. Scattered clouds.13 mph94%29.68 "Hg6 mi
6:00 AM81 °FSprinkles. Scattered clouds.12 mph94%29.68 "Hg4 mi
5:30 AM81 °FSprinkles. Passing clouds.14 mph94%29.68 "Hg6 mi
5:00 AM81 °FPassing clouds.10 mph89%29.68 "HgN/A
4:30 AM81 °FPassing clouds.14 mph89%29.68 "HgN/A
4:00 AM81 °FSprinkles. Passing clouds.17 mph94%29.68 "Hg5 mi
3:00 AM81 °FPassing clouds.18 mph94%29.68 "HgN/A
2:30 AM81 °FPassing clouds.20 mph89%29.68 "HgN/A
2:00 AM81 °FPassing clouds.18 mph89%29.71 "HgN/A
1:30 AM81 °FPassing clouds.14 mph94%29.71 "HgN/A
1:00 AM81 °FPassing clouds.15 mph94%29.71 "HgN/A
12:30 AM81 °FPassing clouds.15 mph89%29.71 "HgN/A
12:00 AM81 °FPassing clouds.16 mph94%29.74 "HgN/A
11:30 PM
Thu, May 26
82 °FPassing clouds.15 mph89%29.74 "HgN/A
11:00 PM82 °FPassing clouds.14 mph89%29.74 "HgN/A
10:30 PM82 °FPassing clouds.14 mph84%29.74 "HgN/A
10:00 PM82 °FPassing clouds.15 mph84%29.74 "HgN/A
9:30 PM81 °FPassing clouds.15 mph89%29.74 "HgN/A
9:00 PM81 °FPassing clouds.15 mph89%29.71 "HgN/A
8:30 PM81 °FPassing clouds.15 mph89%29.71 "HgN/A
8:00 PM81 °FPassing clouds.13 mph89%29.71 "HgN/A
Weather by CustomWeather, © 2016

See weather overviewHow to use our weather pages